Back to catalog

STARLINK-36269

AliveCommunicationsVLEO
NORAD 67472·PAYLOAD·🇺🇸 United States

Launched Jan 14, 2026 from Cape Canaveral Space Force Station

Loading…

Next Passes (next 24 hours)

TLE

FreshSource: CelesTrak SupGP

Epoch: Sep 14, 2026, 14:19 UTC

1 67472C 26008AD  26257.59701389 -.00032265  00000+0 -11688-2 0  2578
2 67472  43.0028 218.5725 0001459 271.1497 343.0888 15.27589556    13

Track STARLINK-36269 in real time with AllMySat

Download on the App Store